Precipitable_Water
0.48 0.54 0.52 0.56 0.62 0.64 0.60 0.49 0.35 0.66 0.77 0.48 0.51 0.43 0.48 0.55 0.53 0.56 0.48 0.45 0.43 0.41 0.41 0.32 0.29 0.27 0.31 0.41 0.37 0.29 0.35 0.28 0.22 0.27 0.37 0.38 0.34 0.30 0.29 0.22 0.21 0.27 0.26 0.22
0.41 0.46 0.53 0.53 0.56 0.64 0.53 0.42 0.43 0.66 0.69 0.37 0.43 0.51 0.50 0.54 0.49 0.47 0.44 0.41 0.44 0.47 0.39 0.33 0.35 0.34 0.40 0.41 0.38 0.33 0.34 0.27 0.20 0.22 0.30 0.36 0.30 0.33 0.36 0.36 0.35 0.28 0.24 0.23
0.36 0.43 0.47 0.55 0.56 0.62 0.53 0.41 0.29 0.43 0.54 0.54 0.44 0.42 0.43 0.43 0.54 0.49 0.44 0.41 0.44 0.42 0.39 0.38 0.35 0.33 0.40 0.44 0.42 0.43 0.41 0.31 0.24 0.19 0.25 0.31 0.29 0.35 0.39 0.38 0.30 0.29 0.29 0.29
0.39 0.37 0.44 0.50 0.59 0.60 0.54 0.43 0.38 0.49 0.36 0.41 0.45 0.45 0.43 0.38 0.39 0.50 0.49 0.41 0.40 0.39 0.34 0.35 0.34 0.37 0.39 0.43 0.45 0.43 0.38 0.27 0.32 0.32 0.33 0.34 0.35 0.36 0.38 0.36 0.36 0.29 0.30 0.36
0.43 0.37 0.37 0.44 0.55 0.63 0.51 0.38 0.41 0.48 0.43 0.47 0.44 0.44 0.40 0.38 0.40 0.43 0.42 0.42 0.43 0.43 0.36 0.36 0.32 0.36 0.36 0.35 0.41 0.38 0.41 0.31 0.33 0.27 0.32 0.35 0.34 0.39 0.41 0.40 0.40 0.38 0.39 0.39
0.47 0.41 0.36 0.37 0.45 0.60 0.49 0.53 0.56 0.48 0.41 0.40 0.38 0.38 0.40 0.41 0.45 0.47 0.51 0.48 0.46 0.43 0.46 0.48 0.46 0.44 0.42 0.41 0.37 0.36 0.36 0.34 0.30 0.23 0.34 0.37 0.32 0.40 0.43 0.42 0.44 0.43 0.37 0.45
0.50 0.46 0.41 0.35 0.35 0.45 0.57 0.55 0.53 0.41 0.31 0.36 0.36 0.39 0.42 0.41 0.44 0.40 0.48 0.50 0.43 0.52 0.64 0.60 0.54 0.50 0.47 0.45 0.44 0.45 0.37 0.35 0.34 0.26 0.35 0.26 0.42 0.50 0.50 0.45 0.46 0.49 0.49 0.53
0.54 0.50 0.46 0.40 0.35 0.33 0.40 0.57 0.49 0.43 0.31 0.37 0.35 0.38 0.40 0.44 0.47 0.45 0.46 0.51 0.58 0.64 0.54 0.42 0.38 0.38 0.38 0.41 0.45 0.45 0.46 0.39 0.30 0.27 0.31 0.36 0.42 0.49 0.47 0.43 0.40 0.50 0.50 0.53
0.58 0.55 0.52 0.47 0.42 0.35 0.28 0.39 0.51 0.47 0.34 0.32 0.43 0.38 0.40 0.36 0.38 0.41 0.46 0.59 0.63 0.59 0.48 0.40 0.28 0.26 0.32 0.32 0.38 0.49 0.46 0.45 0.37 0.35 0.29 0.25 0.43 0.52 0.58 0.55 0.34 0.53 0.55 0.54
0.56 0.57 0.55 0.54 0.48 0.44 0.34 0.31 0.35 0.36 0.33 0.43 0.45 0.39 0.38 0.46 0.43 0.38 0.45 0.48 0.49 0.58 0.42 0.34 0.31 0.30 0.42 0.31 0.32 0.35 0.35 0.37 0.33 0.35 0.31 0.34 0.46 0.50 0.59 0.35 0.36 0.56 0.58 0.58
0.51 0.56 0.54 0.54 0.55 0.52 0.45 0.35 0.37 0.27 0.24 0.29 0.48 0.51 0.47 0.49 0.49 0.39 0.46 0.45 0.50 0.48 0.37 0.35 0.34 0.34 0.40 0.38 0.41 0.39 0.36 0.34 0.34 0.36 0.31 0.27 0.55 0.55 0.43 0.51 0.59 0.59 0.60 0.61
0.54 0.55 0.55 0.52 0.54 0.51 0.51 0.37 0.43 0.40 0.26 0.19 0.38 0.52 0.59 0.60 0.63 0.56 0.56 0.50 0.50 0.52 0.44 0.43 0.44 0.37 0.41 0.41 0.31 0.48 0.37 0.42 0.39 0.41 0.37 0.49 0.55 0.54 0.59 0.63 0.59 0.59 0.60 0.64
0.60 0.54 0.53 0.55 0.54 0.54 0.49 0.43 0.45 0.39 0.26 0.19 0.20 0.24 0.46 0.59 0.66 0.73 0.56 0.58 0.63 0.59 0.63 0.53 0.49 0.39 0.45 0.35 0.37 0.42 0.48 0.54 0.47 0.48 0.50 0.53 0.57 0.59 0.63 0.64 0.60 0.62 0.65 0.67
0.67 0.57 0.56 0.55 0.53 0.53 0.57 0.49 0.47 0.41 0.29 0.17 0.14 0.41 0.47 0.67 0.76 0.74 0.79 0.74 0.72 0.69 0.66 0.54 0.50 0.43 0.55 0.43 0.45 0.45 0.49 0.53 0.48 0.49 0.54 0.58 0.60 0.63 0.62 0.61 0.64 0.64 0.68 0.69
0.64 0.56 0.55 0.55 0.57 0.55 0.53 0.49 0.48 0.46 0.29 0.18 0.19 0.28 0.49 0.70 0.78 0.77 0.78 0.74 0.69 0.63 0.55 0.53 0.48 0.54 0.51 0.52 0.49 0.43 0.50 0.46 0.40 0.39 0.56 0.58 0.60 0.66 0.66 0.61 0.62 0.63 0.65 0.67
0.63 0.56 0.56 0.54 0.54 0.52 0.45 0.30 0.46 0.48 0.41 0.22 0.15 0.41 0.55 0.71 0.78 0.73 0.72 0.71 0.69 0.65 0.57 0.54 0.58 0.63 0.53 0.43 0.39 0.48 0.54 0.58 0.58 0.53 0.61 0.61 0.63 0.66 0.66 0.62 0.64 0.64 0.65 0.68
0.56 0.53 0.56 0.52 0.51 0.49 0.32 0.26 0.41 0.50 0.42 0.27 0.27 0.37 0.59 0.73 0.73 0.72 0.70 0.73 0.69 0.64 0.59 0.53 0.54 0.54 0.57 0.46 0.38 0.52 0.61 0.66 0.66 0.66 0.64 0.59 0.64 0.62 0.66 0.65 0.67 0.68 0.66 0.67
0.51 0.53 0.52 0.52 0.48 0.41 0.33 0.42 0.49 0.49 0.42 0.44 0.35 0.39 0.53 0.72 0.58 0.56 0.71 0.63 0.65 0.63 0.57 0.58 0.52 0.54 0.51 0.40 0.51 0.59 0.64 0.64 0.66 0.66 0.69 0.66 0.68 0.69 0.66 0.67 0.67 0.66 0.62 0.64
0.47 0.57 0.55 0.47 0.39 0.31 0.38 0.57 0.60 0.60 0.51 0.39 0.41 0.39 0.40 0.69 0.60 0.64 0.62 0.66 0.51 0.62 0.50 0.50 0.52 0.45 0.39 0.46 0.50 0.52 0.56 0.57 0.57 0.61 0.65 0.66 0.66 0.65 0.64 0.64 0.63 0.64 0.63 0.64
0.54 0.56 0.45 0.34 0.41 0.57 0.57 0.53 0.47 0.48 0.50 0.49 0.43 0.55 0.47 0.60 0.56 0.54 0.54 0.58 0.50 0.44 0.51 0.60 0.47 0.40 0.52 0.53 0.54 0.53 0.52 0.57 0.61 0.55 0.53 0.61 0.62 0.64 0.63 0.63 0.64 0.64 0.66 0.66
0.42 0.44 0.37 0.47 0.56 0.51 0.46 0.37 0.38 0.44 0.41 0.49 0.52 0.56 0.51 0.66 0.49 0.50 0.58 0.50 0.51 0.38 0.43 0.43 0.37 0.36 0.46 0.54 0.51 0.48 0.51 0.55 0.63 0.67 0.65 0.66 0.70 0.68 0.67 0.66 0.67 0.66 0.70 0.71
0.37 0.41 0.53 0.50 0.46 0.41 0.35 0.33 0.39 0.39 0.39 0.51 0.51 0.54 0.60 0.61 0.66 0.53 0.53 0.42 0.45 0.34 0.51 0.40 0.31 0.41 0.49 0.45 0.43 0.47 0.54 0.60 0.64 0.69 0.69 0.72 0.72 0.72 0.71 0.70 0.68 0.67 0.71 0.76
0.46 0.38 0.35 0.38 0.39 0.29 0.27 0.25 0.31 0.35 0.45 0.51 0.53 0.51 0.58 0.60 0.60 0.49 0.44 0.37 0.34 0.46 0.36 0.32 0.36 0.46 0.45 0.44 0.45 0.49 0.61 0.68 0.70 0.71 0.72 0.74 0.73 0.74 0.73 0.73 0.72 0.71 0.76 0.78
0.33 0.29 0.26 0.30 0.28 0.30 0.31 0.33 0.36 0.44 0.47 0.50 0.53 0.51 0.51 0.55 0.48 0.47 0.37 0.42 0.42 0.31 0.26 0.28 0.41 0.46 0.44 0.47 0.48 0.50 0.58 0.66 0.67 0.72 0.75 0.73 0.74 0.72 0.73 0.76 0.77 0.72 0.72 0.73
0.30 0.30 0.23 0.27 0.33 0.37 0.39 0.41 0.41 0.46 0.51 0.50 0.50 0.51 0.52 0.48 0.44 0.45 0.42 0.36 0.30 0.30 0.28 0.38 0.45 0.44 0.46 0.48 0.49 0.49 0.49 0.52 0.63 0.68 0.72 0.73 0.70 0.73 0.72 0.78 0.78 0.74 0.72 0.71
0.35 0.32 0.27 0.30 0.30 0.32 0.36 0.40 0.40 0.48 0.49 0.51 0.50 0.45 0.42 0.41 0.42 0.38 0.35 0.32 0.27 0.32 0.40 0.45 0.46 0.45 0.46 0.46 0.48 0.50 0.51 0.51 0.51 0.55 0.63 0.67 0.69 0.68 0.70 0.75 0.77 0.76 0.74 0.73
0.33 0.32 0.37 0.31 0.28 0.27 0.37 0.41 0.44 0.50 0.46 0.40 0.43 0.36 0.35 0.44 0.37 0.34 0.39 0.34 0.38 0.42 0.45 0.48 0.48 0.47 0.48 0.48 0.47 0.49 0.51 0.51 0.52 0.52 0.52 0.55 0.63 0.65 0.66 0.65 0.70 0.75 0.74 0.73
Wind_Speed
35 37 40 33 27 24 20 18 18 17 17 16 15 16 14 14 14 11 11 11 10 13 14 14 13 14 10 15 14 15 10 8 8 10 6 7 10 10 9 6 9 10 10 13
31 32 34 29 23 21 18 17 13 14 14 14 16 15 15 14 12 9 8 8 10 15 15 13 12 12 9 15 13 15 11 7 5 4 5 7 8 10 10 8 8 10 9 12
29 28 28 26 19 17 14 14 12 10 11 11 9 11 11 10 10 9 9 9 14 14 11 11 12 11 9 12 12 14 9 7 7 7 6 4 7 7 9 9 7 9 15 22
26 25 24 21 16 13 10 10 9 9 7 7 8 7 6 7 7 7 9 10 11 11 10 11 10 11 11 9 11 10 8 7 6 9 10 9 10 10 10 10 13 11 20 22
21 22 20 17 14 10 10 8 8 7 5 5 5 6 6 4 5 4 5 7 7 8 8 8 12 11 10 10 10 9 8 6 6 8 9 9 9 11 10 11 13 16 19 23
18 18 18 16 13 10 7 6 5 5 3 2 1 3 2 3 4 4 5 5 6 6 6 6 8 9 12 10 11 10 8 7 5 7 5 7 8 8 8 5 6 7 10 15
15 15 15 15 13 10 5 5 4 4 2 1 1 2 4 3 3 5 3 4 5 5 5 6 6 5 6 9 9 9 8 6 6 7 5 5 6 5 5 6 8 9 12 15
13 13 13 13 13 11 7 7 6 5 6 6 6 5 6 6 5 6 6 5 5 5 5 4 6 7 7 9 10 10 9 8 6 5 6 8 6 5 3 5 9 6 10 13
13 13 13 13 12 12 10 9 10 9 10 10 10 10 11 10 10 9 8 8 8 7 6 6 6 8 8 9 8 10 10 9 8 6 6 6 7 5 4 5 6 7 10 12
14 13 14 14 13 13 12 11 12 13 14 14 13 13 12 11 13 12 12 10 10 9 9 8 8 7 7 8 9 8 9 9 10 9 7 8 9 7 5 4 7 9 10 10
14 15 15 15 15 15 15 15 15 14 16 20 19 17 15 14 13 14 13 11 12 11 11 10 9 8 9 8 8 9 9 9 8 9 9 9 7 4 5 7 9 11 10 8
15 16 17 18 18 19 19 20 20 20 20 20 22 26 25 21 18 15 15 13 12 12 10 11 9 9 8 10 9 9 9 11 9 11 10 9 8 9 10 9 10 11 9 7
17 18 19 20 21 22 23 24 25 24 25 26 26 28 29 30 26 22 17 15 14 12 12 11 9 9 9 9 11 10 11 12 11 10 11 13 11 11 10 8 10 10 8 5
18 20 21 23 24 26 27 28 28 27 27 27 26 25 31 30 28 26 22 15 15 13 11 11 10 9 9 9 10 11 12 11 13 14 15 14 13 10 9 10 10 8 6 5
19 21 23 25 27 28 29 30 30 29 27 26 24 28 31 33 30 26 23 18 15 13 11 11 11 10 9 10 10 12 11 12 13 15 16 15 15 12 11 11 11 9 7 6
20 22 25 26 26 27 26 26 24 25 23 17 14 15 25 31 30 26 22 20 16 13 11 11 10 11 10 9 10 12 13 14 15 16 17 17 17 16 14 12 11 10 8 8
21 23 25 24 22 21 20 20 19 12 5 6 8 10 24 29 26 22 20 19 16 14 12 11 11 11 11 11 11 10 12 13 15 17 17 17 16 15 14 13 11 10 9 8
20 21 18 16 15 16 15 11 6 6 13 11 6 10 23 26 21 18 17 16 14 14 13 11 11 10 11 10 10 12 13 14 13 13 14 17 16 15 15 14 12 11 10 10
17 13 12 12 12 10 7 8 8 9 9 6 9 12 18 20 17 14 15 15 12 11 12 12 11 11 10 9 11 12 12 13 15 15 15 14 15 16 16 15 14 12 12 11
10 9 9 8 7 6 6 5 6 7 8 8 8 12 14 15 15 12 12 12 11 11 10 10 11 11 9 8 10 12 13 13 13 13 13 14 14 13 14 15 14 13 12 12
8 8 7 5 4 2 2 2 6 6 6 8 8 10 11 12 11 11 10 9 9 9 10 10 9 9 9 9 11 12 12 12 12 13 15 15 14 13 13 14 14 14 14 14
10 10 8 6 3 2 1 5 6 7 6 6 6 9 9 10 10 8 6 6 6 7 8 8 9 8 8 9 10 11 10 10 11 11 11 13 13 13 12 13 15 16 14 13
11 9 8 6 6 6 6 7 8 6 6 6 6 8 8 9 7 6 5 5 6 5 6 8 8 7 7 8 8 9 8 8 10 10 10 10 10 10 10 10 13 15 15 14
11 9 9 8 7 8 8 9 9 8 8 8 8 7 7 7 8 6 5 4 4 5 6 6 6 5 5 5 6 6 7 8 8 5 7 7 7 8 8 9 13 16 17 16
11 10 10 11 10 9 9 10 12 11 10 10 11 10 8 8 8 8 7 5 7 7 6 5 4 4 4 4 5 6 7 7 7 6 4 8 8 6 7 7 9 14 16 17
13 13 11 11 9 10 11 11 12 13 13 12 11 11 10 11 10 10 10 8 8 7 6 6 5 4 4 5 6 7 8 8 8 7 6 6 7 8 7 6 7 9 15 16
14 14 14 14 13 11 11 11 12 12 13 13 13 13 13 11 11 12 11 10 9 9 10 9 8 7 7 7 8 8 9 9 9 9 9 8 8 7 8 10 10 10 12 14
Wind_Direction
5 10 14 23 36 49 66 80 86 78 77 82 87 93 111 125 136 145 158 159 163 173 168 174 179 185 195 184 182 181 189 180 193 204 211 216 229 235 236 256 273 272 278 290
5 11 16 25 39 50 63 76 83 79 75 92 87 96 108 116 119 128 139 159 167 170 169 171 179 176 193 179 182 182 187 193 197 219 236 236 241 240 242 257 276 267 287 291
4 11 16 26 37 44 62 65 71 78 78 88 102 99 105 114 110 105 102 129 147 159 170 173 177 178 174 175 179 183 180 198 201 213 228 227 243 239 236 239 268 283 271 293
3 10 16 24 34 36 49 49 59 68 81 76 91 111 111 119 117 100 93 112 137 150 161 163 170 175 173 179 180 187 198 216 233 252 251 252 247 246 243 240 257 281 296 300
359 7 12 18 23 27 44 47 57 61 66 75 93 104 116 112 130 117 111 118 148 154 158 185 182 178 187 194 200 198 215 228 255 263 258 245 251 247 243 253 272 281 293 299
352 1 6 10 11 19 31 29 32 31 28 48 124 169 146 128 151 142 140 158 138 132 173 175 181 191 191 200 199 208 214 228 250 258 262 272 256 230 222 258 285 301 312 319
339 350 357 2 2 357 338 348 338 338 295 267 230 219 198 195 190 177 174 163 168 175 178 179 187 188 197 202 209 209 213 224 235 253 278 240 224 249 240 255 294 296 313 315
324 335 343 349 354 349 319 312 303 297 278 265 264 263 229 223 226 215 212 211 204 203 197 191 204 215 219 224 219 215 219 223 237 235 240 257 232 219 250 285 307 316 324 327
310 319 328 333 335 337 331 305 293 277 275 261 263 255 243 232 232 235 229 224 221 213 210 213 216 216 212 215 218 217 217 224 223 227 237 234 225 229 274 303 301 315 328 331
299 307 314 318 320 320 318 303 303 280 268 262 261 252 246 244 233 232 232 228 228 226 222 223 226 229 218 209 210 211 214 222 226 227 235 249 236 243 259 301 293 315 321 323
295 300 307 307 308 308 307 301 295 286 276 266 254 252 247 243 237 229 231 228 233 225 223 226 229 228 220 222 218 214 212 211 219 219 224 242 212 226 251 283 306 314 314 314
294 297 302 303 303 302 300 297 294 285 275 269 261 252 245 238 237 236 230 229 221 219 219 226 223 225 221 225 230 224 228 223 223 218 221 225 240 257 276 286 299 313 312 304
291 297 301 302 302 300 299 296 293 288 280 274 263 250 241 235 231 227 226 225 220 221 219 216 222 227 223 229 236 241 240 232 236 237 238 242 249 266 272 282 295 306 306 292
291 301 302 304 304 302 299 296 293 286 283 276 264 254 236 228 220 215 216 221 216 213 216 219 221 227 225 236 243 246 243 249 240 247 252 256 250 249 267 283 292 297 298 276
295 302 303 306 307 305 303 299 293 286 279 280 274 257 229 214 207 204 207 209 204 209 215 219 225 231 234 245 249 249 244 246 240 244 245 245 248 254 267 281 283 277 272 270
300 305 307 309 309 309 309 311 311 296 275 271 255 225 205 196 196 199 202 203 207 212 216 224 229 235 234 243 247 258 256 259 258 254 251 251 252 253 262 270 273 267 262 256
305 308 311 312 313 314 314 315 320 322 212 189 169 182 183 182 184 192 199 203 209 214 225 231 233 237 237 250 256 260 275 270 274 252 247 246 245 251 253 258 266 262 257 247
311 316 321 326 329 330 334 334 349 86 132 129 144 158 163 175 178 184 193 197 207 217 225 232 233 235 238 248 255 282 281 278 262 264 254 246 248 247 252 256 262 255 245 238
316 324 337 342 348 0 28 39 91 121 138 118 125 146 156 170 176 183 192 197 207 219 226 232 228 235 237 247 274 286 293 273 270 270 253 246 247 249 253 252 254 245 236 229
315 324 332 344 2 22 47 85 106 117 128 138 148 159 154 168 175 183 184 200 217 218 228 219 230 238 229 258 282 285 289 281 270 266 252 244 250 252 252 248 245 235 227 219
305 316 328 327 334 31 71 112 146 135 137 142 150 160 165 170 177 181 193 201 207 219 226 220 228 231 240 273 288 295 292 282 271 258 252 246 249 256 255 243 235 225 223 223
295 288 293 288 261 246 196 173 165 166 156 152 149 159 162 169 171 171 193 194 204 214 210 219 231 231 253 283 295 302 298 291 278 267 259 245 246 258 253 239 229 224 224 233
283 281 264 257 236 228 204 192 182 181 178 171 166 169 173 172 174 176 176 179 200 202 219 232 234 236 268 285 298 307 306 305 302 275 252 246 251 249 245 243 229 221 220 218
271 265 248 239 231 228 211 205 202 203 203 200 191 185 183 195 194 198 198 213 214 225 233 230 216 242 264 288 309 320 318 321 331 298 244 245 255 256 253 258 230 222 217 214
257 250 243 238 237 231 226 225 218 216 217 213 211 215 212 211 211 218 222 229 235 232 226 205 217 234 256 286 314 326 335 333 323 325 284 265 256 260 259 264 233 219 213 213
248 242 239 240 239 235 231 229 221 218 220 217 217 220 221 225 225 226 231 237 238 233 219 218 232 248 271 291 305 313 317 321 326 320 302 293 268 256 252 244 230 219 214 209
245 240 238 239 242 240 230 224 222 221 221 222 224 226 224 230 230 233 234 239 234 228 227 232 238 253 270 290 300 307 312 312 313 311 307 294 280 269 253 242 237 226 218 217